Find Zhongyuan-2

NORAD ID: 61869 Int'l Des: 2024-203 Owner: PIESAT Country: CN operational
LEOCIRCULARRETROGRADESSO

Live Position

Loading 3D Globe...

About Zhongyuan-2

Description loading...

Upcoming Passes

Passes for default location (London). Set your location on the main map for personalized predictions.

Altitude History

Loading altitude history...

Two-Line Element Set

1 61869U 24203A 26106.31085566 .00007317 00000-0 26671-3 0 9993
2 61869 97.4237 176.7553 0012459 178.4991 181.6288 15.28406829 79508
Epoch: Apr 16, 2026 • Age: 6 hours

Current Status

Altitude 510.1 km
Velocity 7.61 km/s
Sub-Earth Point -74.94°S, 159.95°E
Launch Date Nov 9, 2024
Age 1.4 years
Type other

Technical Details

Classification Payload
Mass 320.00 kg
Dry Mass 320.00 kg
Total Mass 320.00 kg
Length 1.00 m
Diameter 1.00 m
Span 4.00 m
Shape Box + 2 Pan
Manufacturer YINHE
Bus Type Piesat
Phase Status In Orbit
Owner/State PIESAT/CN

Most Searched